{"data":{"norad_id":42959,"epoch":"2026-09-19T22:36:38.743776Z","epoch_age_seconds":63613,"freshness":"FRESH","line1":"1 42959U 17061E   26262.94211509  .00000054  00000+0  12141-4 0  9994","line2":"2 42959  86.4023 345.6580 0002264  94.0464 266.0990 14.34217843468395","mean_motion":14.34217843,"eccentricity":0.0002264,"inclination_deg":86.4023,"raan_deg":345.658,"arg_perigee_deg":94.0464,"mean_anomaly_deg":266.099,"bstar":1.2141e-5,"rev_number":46839,"period_min":100.40315751392,"perigee_km":776.04677102373,"apogee_km":779.28691900475,"semimajor_km":7155.8038450142,"source":"CELESTRAK","updated_at":"2026-09-20T09:00:36.324924Z"}}